Location: Caltech
(34.1382°N, 118.1253°W)
Time: 01:23:27
(UTC-08:00)

SO-67 - Visible Passes

Search period start: 27 February 2017 00:00
Search period end: 09 March 2017 00:00
Orbit: 407 x 413 km, 97.1° (Epoch: 26 February)

Date Brightness Start Highest point End Pass type
(mag) Time Alt. Az. Time Alt. Az. Time Alt. Az.
28 Feb ? 18:37:42 10° SSW 18:40:22 25° W 18:43:04 10° NW visible
01 Mar ? 05:57:35 10° ENE 05:59:32 15° E 06:01:30 10° SE visible
02 Mar ? 18:35:33 10° SSW 18:38:18 27° W 18:41:02 10° NW visible
04 Mar ? 18:33:21 10° SSW 18:36:09 29° W 18:38:57 10° NW visible
06 Mar ? 18:31:05 10° SSW 18:33:57 32° W 18:36:49 10° NNW visible
08 Mar ? 18:28:47 10° SSW 18:31:42 34° W 18:34:36 10° NNW visible
